CAPE
3996 4220 3916 3876 3880 3818 3753 3947 3733 3596 3461 3620 3785 4107 4143 3768 3566 3565 3300 3439 3353 3339 3321 3407 3460 3627 3539 3760 2970 2827 3396 3333 3056 3403 3550 3348 3130 2970 2462 2750 2531 2047 2030 1929 1731 1228 1069 1075 1389 1504 1346 1393 1332 1062 692 787 1053 893 745 658 524 636 693 685 613 431 523 302 132 154 193 208 693 399 331 301 789 413 89 113 1044 802 495 128 411
4302 4280 4123 3914 3745 3848 3810 3929 3822 3717 3534 3609 3924 3932 3994 4093 3909 3845 3278 3487 3477 3430 3595 3514 3530 3533 3593 3842 3550 3043 3497 3607 3162 3323 3514 3631 3193 2995 2815 2725 2581 2371 2152 2231 2202 1589 1364 1277 1386 1580 1739 1529 1318 1298 805 843 1009 676 846 574 648 811 704 718 543 497 418 412 464 262 184 256 235 605 538 321 293 657 649 125 42 328 519 324 36
4050 4419 4161 4039 3889 4034 3805 4030 3932 3579 3515 3185 3615 3647 3859 4227 4153 3929 3578 3394 3637 3540 3550 3670 3830 3721 3720 3800 3990 3471 3600 3630 3536 3618 3720 3762 3472 3150 2955 3010 2860 2616 2343 2328 2301 2011 1505 1607 1462 1550 1558 1518 1511 1381 1152 860 941 702 591 733 878 797 792 679 690 492 296 449 692 854 584 418 298 375 458 509 544 447 549 598 440 387 504 488 274
3774 4248 4324 4020 3928 4033 3911 3839 3305 3389 3321 3121 3432 3341 3130 3832 4258 3978 3868 3059 3256 3727 3546 3679 4050 4130 3732 3705 3894 3908 3661 3780 4006 3721 3795 3848 3786 3643 3322 3242 3149 2965 2635 2468 2443 2406 1872 1797 1691 1329 1347 1534 1497 1501 1414 1029 1011 1049 802 800 929 821 815 977 701 728 680 595 732 583 509 440 526 480 460 461 468 434 425 534 489 466 486 666 738
3257 3993 4182 3903 3842 4015 3890 3516 3535 3417 3129 2956 2976 2896 2921 3303 3734 3862 3695 3106 2599 3460 3772 3784 4150 4247 3992 3774 3850 4072 4016 4067 4185 3874 3701 3806 3955 3865 3732 3621 3502 3162 2892 2723 2585 2601 2238 1920 1868 1432 1287 1479 1573 1471 1410 1372 1212 1137 1086 978 991 920 734 883 1144 900 705 573 615 743 774 613 533 524 544 538 498 556 566 536 476 425 516 379 241
2970 3653 3967 3802 3882 3816 3892 3777 3655 3513 3242 2940 2811 2753 2792 2873 2992 3650 3630 3304 2861 2604 3609 3814 3843 4203 4344 4142 3932 4101 4287 4208 4403 4242 3627 3643 3897 3933 3853 3696 3586 3536 3311 2991 2988 2824 2472 2178 2010 1619 1304 1395 1544 1583 1602 1454 1404 1272 1145 1058 944 1016 998 768 918 1294 1116 828 674 647 755 694 710 702 673 629 545 389 376 555 672 552 538 533 290
3032 3398 3862 3639 3853 3820 3871 3934 3753 3495 3564 3064 2832 2783 2648 2498 2539 3037 3666 3606 3164 2544 2876 3858 3872 4192 4485 4444 4224 4280 4309 4354 4567 4524 3947 3598 3760 3988 3860 3809 3655 3783 3701 3329 3147 2846 2554 2454 2241 1903 1498 1401 1469 1715 1781 1570 1492 1449 1462 1367 1138 1122 1133 927 842 899 1139 1104 818 678 552 688 688 746 804 766 747 674 552 394 746 1174 1309 1177 1042
3123 3461 3853 3926 3990 3853 3806 3893 4127 3982 3788 4088 3486 2954 2698 2516 2659 2873 3514 3635 3392 3023 2405 3259 3929 4007 4425 4682 4530 4418 4468 4493 4576 4636 4368 3609 3455 3877 3999 3772 3669 3871 4029 3710 3257 2862 2685 2499 2342 2100 1749 1463 1459 1706 1953 1704 1675 1710 1570 1510 1364 1233 1199 1181 910 837 1082 1047 975 800 597 985 822 330 528 650 868 931 717 541 485 375 617 1470 1664
3115 3316 3740 4110 4291 4182 4281 4076 4295 4297 4236 4674 4314 3657 3157 3040 3052 3036 3303 3619 3472 3208 2707 2398 3649 4078 4209 4777 4855 4431 4336 4586 4601 4660 4622 4032 3534 3697 4124 3967 3498 3568 3958 3681 3408 3076 2847 2626 2433 2276 2244 1788 1396 1643 1639 1560 1716 1797 1835 1695 1571 1419 1286 1223 1130 1130 1186 1114 1061 1000 860 1037 770 818 616 666 834 1098 1117 702 477 358 298 227 512
3431 3376 3634 4102 4378 4419 4685 4691 4604 4645 4489 4811 4834 4373 3616 3431 3105 2987 3142 3319 3688 3554 3422 2888 2778 3800 4175 4630 4821 4658 4449 4444 4278 4061 4257 4555 3985 3613 3805 3978 3705 3436 3793 3812 3573 3286 2993 2804 2632 2161 1822 1623 1412 1396 1411 1324 1442 1656 2002 1970 1755 1662 1494 1375 1315 1227 1260 1260 921 748 626 528 447 676 412 530 575 666 418 661 1141 697 355 281 552
3071 3293 3701 4079 4542 4673 4729 4752 4898 4895 4798 4661 4713 4738 4343 3829 3905 4133 3946 3705 3928 4420 3882 3290 2853 3160 4004 4392 4738 4860 4782 4537 4162 3935 4053 4161 4416 4162 3895 4072 4044 3772 3694 3937 3784 3434 3253 3020 2921 2590 2058 1769 1568 1428 1405 1254 1222 1426 1729 1833 1756 1841 1612 1540 1399 1268 1216 1078 1068 1100 795 940 664 451 610 474 192 148 490 659 1080 654 374 212 166
2975 3720 3647 4469 4961 5032 4859 5036 5100 5124 5020 4809 4841 4834 4507 4123 4221 4283 3834 3611 4497 3908 3801 3757 3828 3172 3594 4156 4476 4728 4806 4283 4146 3965 3918 3988 4082 4332 4141 3868 3985 4077 3778 3697 3929 3850 3655 3330 3062 3037 2832 2628 2324 1868 1486 1342 1202 1292 1465 1572 1487 1540 1558 1791 1664 1324 1217 1119 1213 1214 836 737 978 980 408 273 735 721 492 586 742 336 250 182 141
3505 4360 3605 3961 4883 5058 5138 5091 5161 5209 5271 5103 4977 4959 4800 4515 4280 4147 3896 3992 3952 4307 4540 4090 4035 3727 3618 4236 4301 4535 4731 4191 3918 3885 3798 3779 3760 3783 4109 4022 3786 4084 4071 3887 3850 4021 3746 3500 3430 3205 3128 2368 2303 2445 2377 1807 1262 1176 1368 1390 1383 1520 1427 1266 1374 1530 1384 1634 1389 1396 907 876 988 1028 861 818 566 724 577 418 351 254 290 252 184
2775 3273 3832 4361 4839 5058 5322 5227 5196 5241 5389 5301 5060 5068 4993 4764 4298 4008 4044 4292 4243 4384 4190 4362 4335 4526 4166 4196 4491 4523 4716 4168 3948 3709 3616 3546 3517 3426 3787 3944 3915 3935 4184 4046 3817 3988 4003 3724 3584 3512 3374 3268 2737 2587 2653 2377 1992 1428 1490 1655 1830 1863 1435 1247 1040 1005 1191 1626 1716 1471 1427 1172 1335 1059 1032 527 439 655 435 348 323 199 267 291 223
2826 3298 3941 4223 4494 4957 5363 5354 5278 5346 5520 5477 5259 5177 5129 5033 4562 4123 4011 4170 4245 4445 4434 4409 4383 4474 4224 3921 4040 4339 4495 4121 4080 3774 3436 3322 3237 3101 3661 3623 3888 3990 4030 4213 4087 3856 3911 3893 3793 3648 3584 3585 2672 2638 2782 2597 2334 1895 1763 1668 1508 1483 1650 1454 1167 929 1029 1080 1087 1565 1527 1188 1083 729 677 773 628 665 452 354 257 197 216 237 220
2866 3268 3908 3990 4214 4762 5246 5474 5465 5445 5589 5501 5302 5182 5230 5157 4860 4469 4223 4252 4284 4310 4575 4408 4358 4330 4405 4267 3844 3964 4200 3837 3937 3882 3573 3207 3076 2965 3444 3676 3639 3871 4113 4160 4246 4148 3950 3942 3950 3719 3674 3799 2909 2256 2462 2718 2486 2143 1820 1615 1502 1384 1345 1153 1124 1160 1210 1236 1223 1209 1237 1098 808 1515 1128 534 726 495 162 333 279 321 266 94 29
2960 3373 3772 3927 4251 4751 5269 5493 5542 5578 5701 5505 5277 5164 5098 5202 5094 4760 4220 4145 4305 4376 4512 4538 4641 4434 4408 4502 4364 4083 4071 4105 3699 3749 3683 3400 3033 2840 3262 3522 3609 3696 3965 4143 4178 4222 4000 4040 4071 3838 3672 3833 3443 2480 2070 2352 2678 2394 2067 1788 1584 1433 1221 1215 1252 1330 1355 1360 1327 1249 1157 1023 812 664 468 389 1091 239 152 120 122 52 67 63 62
3478 3942 4024 4342 4632 5034 5517 5573 5580 5568 5610 5598 5360 5137 5109 5267 5198 4861 4530 4307 4214 4383 4446 4570 4641 4496 4383 4352 4324 4380 4077 4707 3671 3646 3572 3466 3206 2906 3294 3503 3593 3653 3695 3950 3934 3768 3863 3465 3805 3953 3595 3578 3365 3006 2232 2157 2896 2703 2411 2124 1865 1653 1538 1371 1304 1388 1327 1288 1252 1195 1125 1050 947 689 450 454 342 266 306 143 52 4 17 114 42
3592 3942 4154 4494 5090 5226 5534 5576 5534 5573 5579 5665 5463 5335 5288 5282 5183 4999 4678 4519 4303 4421 4273 4386 4631 4564 4390 4497 3980 3866 4262 4181 3923 3656 3519 3417 3275 3131 3382 3485 3527 3612 3635 3708 3843 3847 3789 3330 3145 3277 3544 3390 3259 3016 2780 2408 2927 2963 2663 2336 2045 1882 1712 1561 1362 1208 1117 1120 1223 1212 1159 1009 844 526 427 332 277 284 112 77 1 0 0 0 0
3944 3382 3568 4468 5030 5302 5414 5679 5616 5472 5569 5730 5659 5594 5466 5279 5278 5178 4915 4591 4372 4191 4108 4113 4466 4484 4374 4001 3983 3954 4177 4640 3710 3664 3666 3501 3308 3184 3520 3505 3478 3521 3626 3604 3756 3825 3894 3652 2823 2736 2732 2799 3040 2915 2816 2589 2644 2922 2697 2452 2196 2112 1883 1782 1353 1261 1160 1298 1377 1284 1036 819 548 403 345 298 247 148 13 5 18 5 3 0 0
3828 4252 4247 3856 4612 5462 5542 5591 5590 5599 5550 5561 5478 5363 5343 5295 5178 5100 4808 4532 4427 4374 4261 4135 4153 4466 4434 4582 4534 4348 4201 4206 3893 3644 3596 3445 3310 3207 3501 3584 3585 3483 3572 3358 3421 3491 3442 3402 3304 2622 2488 2521 2780 2837 2802 2748 2286 2791 2862 2691 2432 2245 1738 1784 1374 1310 1303 1384 1374 1118 797 624 438 326 287 284 218 139 12 2 0 0 0 0 0
3709 3934 4620 4532 4762 5478 5813 5873 5765 5333 5262 5358 5400 5275 5274 5034 4876 4975 4663 4569 4650 4614 4644 4499 4344 4320 4330 4352 4439 4410 4141 3900 5124 3527 3528 3432 3453 3387 3248 3553 3514 3492 3077 3326 3171 3114 3368 3251 3348 3217 2426 2362 2447 2675 2726 2702 2512 2214 2917 2389 2044 1762 1688 1862 1390 1322 1327 1363 1338 954 724 548 507 224 271 232 177 0 0 0 0 0 0 0 0
4039 4339 4888 5021 5260 5662 6050 5771 5403 5008 4998 5168 5256 5222 5168 5031 4940 4982 4988 4840 4799 4675 4837 4662 4347 4100 4197 4055 3718 3945 4365 4507 3621 3366 3346 3366 3452 3424 3319 3317 3071 3239 3308 3224 3191 3262 3259 3368 3135 3230 2595 2206 2195 2352 2568 2628 2587 2124 2259 2058 1752 1680 1507 1385 1264 1305 1354 1409 1322 996 776 362 246 150 221 218 0 0 0 0 0 0 0 0 0
4144 4371 4841 5109 5098 5698 5874 5230 5070 4609 4696 4892 5106 5331 5276 5177 5120 5227 5256 4986 4740 4717 4619 4354 4231 3998 3896 3526 3522 3393 4626 4306 3872 3270 3317 3318 3228 3337 3323 3255 3082 2953 3193 3292 3295 3411 3203 3484 3299 3084 2727 2328 2030 2084 2271 2424 2476 2274 1782 1902 1635 1550 1455 1348 1265 1528 1508 1485 1302 885 520 332 165 152 107 11 1 75 0 0 0 0 0 0 0
4488 4775 4852 4882 4958 5204 5402 5116 4845 4697 4622 4888 5282 5460 5303 5177 5046 5050 5104 4741 4576 4472 4513 4008 3868 4086 4034 3847 3560 3198 3321 4660 3998 3563 3404 3335 3282 3224 3192 3148 3073 2983 2908 2949 3154 3018 3017 2811 2626 2715 2680 2422 2112 1916 2003 2166 2279 2216 1758 1601 1551 1492 1418 1390 1427 1561 1527 1449 1260 880 425 388 236 155 76 77 28 6 0 0 0 0 0 0 0
5203 5268 5148 5016 4800 4571 5056 5015 4861 4714 4603 4618 4976 5138 5045 4966 4871 4987 4884 4731 4740 4544 4315 3955 3887 3456 3442 3930 3877 3654 4236 3762 4300 3922 3571 3388 3313 3244 3226 3134 3053 2940 2862 2832 2885 2774 2754 2789 2701 2614 2484 2389 2116 1932 1858 1959 2066 2014 1770 1498 1477 1454 1465 1502 1438 1560 1565 1476 1260 811 349 123 95 158 419 171 16 0 0 0 0 0 0 0 0
4919 4970 4846 4708 4865 4791 4913 4783 4507 4408 4441 4157 4310 4548 4538 4630 4538 4684 4502 4342 4338 4362 4377 4041 3581 3137 3516 3631 3855 4028 3879 3784 3686 3528 4243 3673 3488 3366 3357 3298 3242 3038 2897 2797 2782 2749 2667 2538 2564 2497 2443 2364 2137 1789 1846 1788 1771 1692 1638 1490 1484 1517 1479 1507 1508 1604 1660 1507 1203 571 230 135 95 173 41 10 60 0 0 0 0 0 0 0 0
4670 4643 4616 4614 4837 4771 4753 4475 4249 4174 4408 4296 4199 4340 4448 3891 3929 4868 4550 4441 4467 4318 4138 3992 3572 3292 3133 3359 3648 3714 3555 3778 3790 3922 4040 3556 3527 3638 3646 3576 3372 3230 3034 2932 2840 2749 2561 2462 2366 2358 2271 2376 2290 2073 1755 1741 1677 1594 1571 1468 1525 1474 1427 1499 1532 1636 1670 1469 929 386 175 266 228 96 0 0 0 0 0 0 0 0 0 0 0
4883 4817 4540 4477 4647 4638 4628 4520 4351 4503 4541 4627 4475 4042 3817 3291 4622 4040 4114 3919 4026 4041 4103 3632 3420 3274 3216 4015 4640 4734 4463 3632 3954 3449 3486 3458 3408 3550 3699 3739 3665 3515 3399 3200 2978 2753 2664 2582 2566 2302 2107 2092 2197 2144 1941 1750 1587 1512 1452 1372 1512 1478 1455 1581 1629 1655 1550 1244 747 308 180 130 96 77 58 0 2 0 0 0 0 0 0 2 0
4730 4380 4720 4677 4565 4137 4571 4441 4123 4104 4140 3619 3705 4105 3423 4234 4557 4693 4023 3836 3687 3658 3566 3774 3904 3952 3777 3841 4258 3979 3830 3561 3444 3377 3488 3527 3535 3435 3470 3513 3470 3392 3327 3316 3134 2903 2847 2704 2454 2138 2150 2121 2157 2102 2050 1891 1774 1481 1334 1346 1418 1467 1481 1617 1626 1455 1293 1107 738 227 162 55 110 80 60 1 0 0 0 0 0 0 1 0 0
4209 4386 4476 4613 4523 3888 3771 4006 4144 4226 3957 3725 3566 4713 3501 3360 3436 3632 3742 3776 3722 3603 3588 3461 3359 3286 3258 3287 3285 3223 3189 3155 3154 3136 3089 3102 3105 3066 3202 3315 3417 3430 3419 3344 3167 3073 3040 2709 2334 1946 2043 1899 1911 2099 1985 1926 1831 1728 1349 1339 1406 1410 1454 1606 1607 1355 1222 1316 667 112 20 0 65 56 3 0 0 0 0 0 0 1 0 0 0
3868 3833 3737 3954 4823 4441 4221 4280 4096 4060 3689 3977 4623 4286 4112 4044 3206 3190 3299 3379 3385 3403 3404 3348 3280 3245 3226 3180 2996 2791 2691 2688 2684 2674 2687 2663 2599 2561 2582 2692 2715 2770 2807 2739 2628 2835 2972 2960 2803 2574 2154 2097 2047 2062 2274 2166 2064 1812 1561 1405 1467 1476 1546 1584 1506 1318 1365 1238 308 2 0 0 0 16 0 0 0 0 0 0 0 0 0 0 0
3123 3525 3564 3636 3853 3785 3688 3943 3999 4056 4037 4058 4076 3662 3728 3600 3236 2808 2640 2520 2457 2676 2781 2702 2602 2497 2349 2153 1613 864 388 123 0 0 0 0 0 0 0 0 0 0 312 1080 1727 2199 2528 2724 2808 2808 2778 2810 2145 1792 1824 2002 2043 1801 1677 1459 1454 1475 1498 1625 1536 1331 1402 991 40 0 0 0 0 0 0 0 0 0 0 8 2 1 1 0 0
2580 2851 2617 2655 2699 2537 2591 2764 2681 2900 2785 2883 2975 2984 2356 1942 1541 892 830 1441 2678 2639 801 0 0 0 0 0 0 0 0 0 0 0 0 0 0 0 0 0 0 0 0 123 712 1249 1716 2109 2352 2450 2365 2312 2437 2421 2260 1809 1880 1656 1536 1476 1377 1430 1373 1159 1450 1471 1306 408 0 0 0 0 0 0 0 0 0 0 0 5 3 1 0 0 0
1882 1718 1812 2251 2130 1835 1801 1961 1926 2062 1888 1947 1444 860 1001 751 543 352 435 411 194 140 157 1507 644 0 22 1 0 0 0 0 0 0 0 0 0 0 0 0 0 0 0 1 2 457 1078 1404 1659 1964 2027 1997 1922 2164 2290 2219 1586 1586 1617 1490 1258 1270 1179 694 760 1009 664 84 0 0 0 0 0 0 0 0 0 0 0 0 0 0 0 0 0
1460 1503 1395 1586 1502 1497 1728 1802 1952 2003 1726 1394 1066 785 612 587 489 548 431 126 20 34 73 121 172 122 0 0 0 0 0 0 0 0 0 0 0 0 0 0 0 1 0 0 1 38 465 1063 1262 1480 1754 1859 1786 1609 1818 1711 1720 1510 1445 1155 1163 1211 1129 866 834 344 320 0 0 0 0 0 0 0 0 0 0 0 0 0 0 0 0 0 2
1214 1294 1232 1407 1374 1757 1583 1193 1180 1423 1211 1269 1215 1073 790 477 497 669 635 267 32 206 238 307 58 61 190 198 9 0 0 0 0 0 0 0 0 0 0 0 0 2 3 1 1 0 2 275 842 1056 1236 1435 1482 1384 1229 1535 1799 1851 1284 1232 1074 972 1035 727 682 520 168 0 0 35 16 0 0 0 0 0 1 0 0 0 0 0 0 1 0
1812 1688 1857 1843 1658 1442 1358 1152 1302 1511 2127 1185 1159 1276 841 656 508 401 331 479 122 287 179 126 10 76 157 113 2 0 0 0 0 0 0 0 0 0 0 0 0 3 3 5 11 20 18 13 180 521 733 947 1149 1197 1148 924 1196 878 830 996 755 636 764 759 511 141 6 34 54 50 0 0 0 0 0 0 1 0 0 0 0 0 1 0 0
1204 1089 1218 1215 1220 1381 1368 1323 1261 1239 1141 1178 911 707 512 665 582 468 491 381 254 225 108 88 101 94 29 0 0 0 0 12 4 0 1 2 0 0 0 0 0 0 0 2 2 11 22 25 25 99 224 394 673 390 389 588 663 672 698 886 744 738 778 501 171 0 0 26 66 0 0 0 0 0 0 0 9 19 9 2 0 0 0 0 0
924 1060 834 879 994 818 1126 1036 1112 919 775 908 752 843 628 547 577 622 374 209 230 202 188 159 168 81 7 0 1 0 0 0 1 0 0 0 0 0 2 2 2 1 1 0 1 9 18 29 50 79 95 93 88 176 143 144 335 433 458 654 786 783 637 650 0 0 0 0 1 0 0 0 0 0 4 14 37 28 10 1 0 0 0 0 0
819 614 567 540 603 732 726 684 648 873 819 756 824 675 480 333 440 419 321 228 141 158 222 183 152 73 5 0 0 0 0 4 2 1 0 0 0 1 3 5 9 15 10 7 9 22 74 72 36 22 0 6 32 62 64 64 219 375 426 541 585 647 637 215 0 0 0 2 0 0 0 2 7 9 3 14 6 3 0 0 0 0 0 0 0
661 732 740 720 495 634 596 652 690 680 634 628 382 420 409 350 322 192 59 112 120 30 38 84 93 18 16 0 0 0 1 0 1 1 0 0 0 3 4 8 6 5 3 1 0 1 1 0 1 3 1 0 0 6 12 28 160 332 324 417 527 587 479 61 0 0 4 18 8 2 3 8 10 16 11 0 0 0 0 0 0 0 0 0 0
618 535 522 525 524 537 564 458 475 400 482 414 345 269 249 222 168 95 51 71 15 45 33 50 41 4 8 0 0 0 5 0 0 0 0 2 2 2 4 6 4 2 0 1 3 0 0 0 0 0 0 0 0 4 21 79 194 383 590 489 460 401 130 0 0 14 17 16 39 11 9 6 1 0 0 0 0 0 0 0 0 0 0 0 0
696 684 528 516 498 606 419 347 344 355 389 384 374 298 196 276 123 167 102 52 4 2 1 7 4 0 0 1 1 0 0 0 2 1 0 1 0 0 1 2 5 3 1 0 2 1 0 0 0 1 6 1 0 0 0 0 0 0 5 58 1 15 7 14 3 0 0 8 9 19 14 1 0 0 0 0 0 0 0 0 0 0 0 0 0
279 289 441 474 479 552 529 530 308 530 464 552 497 496 321 435 288 303 211 158 100 51 16 12 2 4 0 2 1 0 0 0 1 2 1 1 0 0 0 1 2 2 3 1 2 2 0 0 0 0 0 0 2 10 15 24 24 24 18 16 12 30 26 4 5 8 19 27 14 12 0 0 0 0 0 0 0 0 0 0 0 0 0 0 0
34 79 40 83 69 62 100 132 157 250 251 230 262 220 289 294 352 328 288 283 274 162 36 14 2 2 1 2 0 0 5 23 14 5 2 2 1 0 35 15 0 0 1 1 0 0 0 0 0 0 0 0 0 0 0 0 0 8 13 18 25 34 32 24 20 21 15 7 0 0 0 0 0 0 0 0 0 0 0 0 0 0 0 0 0
8 3 2 3 2 4 8 11 11 23 50 20 24 27 27 28 20 45 88 36 58 118 132 126 103 245 104 39 64 41 24 16 24 11 4 4 16 22 3 34 31 34 16 16 15 9 4 0 0 0 0 0 0 0 0 0 0 3 12 16 24 35 31 34 29 18 6 2 0 0 0 0 0 0 0 0 0 0 0 0 0 0 0 0 0
0 0 0 3 7 7 8 10 8 8 8 8 8 9 8 8 6 4 4 3 4 2 34 101 140 61 87 125 50 59 37 36 40 33 15 2 6 11 32 25 26 20 20 22 29 33 40 60 32 17 9 5 4 1 0 4 10 19 24 27 32 42 50 43 26 12 6 0 0 0 0 0 0 0 0 0 0 0 0 0 0 0 0 0 0
0 0 0 0 0 2 5 8 8 6 7 7 6 4 6 6 6 5 6 6 6 4 4 7 10 13 25 26 22 39 35 12 34 85 78 61 30 28 36 48 44 41 29 18 7 7 22 32 40 48 66 84 68 52 47 36 33 34 29 24 34 36 30 23 13 16 4 7 1 0 0 0 0 0 0 0 0 0 0 1 0 0 0 0 0
0 0 0 0 0 0 0 0 0 0 0 0 0 0 1 3 4 3 3 4 5 6 6 7 6 7 6 4 3 16 17 34 44 96 82 82 61 75 38 44 63 58 60 63 51 40 28 24 37 51 67 74 70 53 29 25 25 42 22 37 36 34 19 7 0 0 0 0 0 0 0 0 0 0 0 0 0 0 0 0 0 0 0 0 0
0 0 0 0 0 0 0 0 0 0 0 0 0 0 0 1 2 1 2 2 2 4 5 6 4 10 18 7 6 9 2 6 38 10 74 148 240 195 110 60 107 99 89 81 86 83 72 53 41 44 50 50 45 29 21 15 10 23 56 63 47 27 18 9 0 0 0 0 0 0 1 2 0 0 0 0 0 0 0 0 0 0 0 0 0
Wind_Speed
14 14 15 14 15 16 16 16 16 15 15 15 14 14 14 14 14 14 16 15 14 14 13 13 14 14 13 14 12 14 15 14 14 14 15 16 15 13 12 14 11 11 11 10 9 8 9 9 11 14 15 17 16 16 17 19 19 18 18 20 21 21 21 21 20 19 18 20 18 18 22 23 27 25 24 25 30 29 nan 26 31 32 32 32 40
13 15 15 15 16 17 18 18 18 18 18 17 17 17 16 17 17 18 18 19 18 17 16 15 15 15 15 15 15 14 16 16 15 14 15 16 16 15 13 13 14 12 13 12 11 10 10 11 12 14 15 16 17 17 17 20 21 20 21 23 23 23 22 22 22 20 19 20 21 20 18 24 22 29 27 27 27 31 31 31 nan 31 32 32 nan
15 16 16 16 17 19 19 20 21 20 20 19 19 19 18 18 18 18 19 20 20 19 20 18 18 18 17 17 17 16 17 17 17 15 15 16 17 16 15 15 15 15 15 14 14 13 12 13 13 14 15 16 16 16 17 19 21 22 24 24 23 23 23 23 22 22 20 19 23 23 23 24 26 27 30 27 26 27 31 32 32 32 32 33 33
18 19 18 18 19 20 20 20 21 21 20 19 20 19 19 19 20 19 20 20 20 20 20 20 20 20 19 19 19 18 18 18 18 17 16 16 17 17 17 17 16 16 16 17 16 16 15 15 14 15 16 16 17 17 17 18 20 22 24 24 23 22 22 25 24 22 21 22 22 23 25 27 30 27 26 30 30 30 30 31 33 33 34 36 37
20 20 21 21 21 20 20 20 20 21 20 19 19 19 19 19 20 21 21 20 19 20 19 19 20 20 20 20 20 20 19 19 19 18 18 17 17 18 18 18 18 17 17 17 17 18 17 16 16 16 16 17 18 18 18 20 20 21 23 23 24 24 23 24 25 24 23 23 22 24 25 26 27 31 33 32 33 32 32 33 33 34 35 35 34
21 22 22 22 21 22 22 21 20 21 20 19 19 19 19 20 20 21 21 20 19 18 19 18 18 18 19 20 21 21 21 20 20 20 19 19 19 19 19 19 19 19 19 18 18 18 19 18 18 18 18 18 18 19 20 21 21 21 22 23 23 24 24 24 24 25 25 25 24 25 28 29 32 33 34 35 34 34 34 36 36 35 35 35 35
23 23 23 22 21 21 22 21 19 19 19 18 17 18 19 21 21 21 21 19 19 18 18 18 17 17 19 20 21 22 22 21 21 20 20 20 21 21 20 20 20 21 21 20 19 19 20 20 20 19 19 20 20 20 21 21 21 22 22 23 23 24 25 24 25 25 25 25 26 27 27 30 32 34 36 35 35 34 33 36 37 37 37 37 35
22 22 22 21 20 20 20 20 18 18 18 18 17 18 19 20 20 19 18 18 16 17 17 18 17 16 17 18 20 22 22 22 21 21 21 21 21 22 21 20 20 21 21 21 19 18 20 21 22 21 21 21 21 22 22 22 21 21 22 22 22 23 24 25 25 25 24 25 26 28 31 31 33 34 34 37 36 36 35 35 35 37 39 37 35
20 21 21 21 19 19 19 19 17 18 18 19 18 18 19 20 19 17 16 14 13 13 14 15 17 16 15 16 18 20 21 21 21 21 21 22 22 22 23 22 21 21 22 22 21 19 20 22 23 23 23 23 25 23 23 23 22 21 21 23 23 23 23 24 25 25 25 25 26 27 27 31 32 34 38 38 39 37 37 36 36 37 37 37 37
18 18 20 20 20 20 20 19 18 17 18 18 18 19 19 19 18 16 13 12 11 10 10 11 14 15 16 16 16 16 16 17 20 23 22 22 23 22 23 23 22 22 23 23 23 22 20 22 24 25 27 28 27 26 25 25 24 21 22 23 24 24 24 25 26 27 26 26 27 28 29 30 33 36 37 39 40 39 37 38 37 38 37 36 35
18 17 16 18 21 22 21 20 19 18 17 18 18 19 18 18 16 14 12 11 9 9 8 10 10 12 15 16 17 16 15 14 20 22 23 23 23 23 22 23 23 23 23 23 23 23 22 22 23 28 29 31 29 29 27 26 26 24 24 24 24 26 26 27 27 28 28 28 28 29 29 31 35 36 39 39 41 41 41 40 38 38 38 38 37
18 16 15 19 21 21 21 21 20 18 18 18 19 19 19 17 15 14 13 11 10 8 8 8 7 9 11 14 16 15 14 17 23 23 24 24 23 22 21 22 23 23 23 24 24 24 24 23 23 25 28 30 30 30 29 29 27 26 26 25 26 27 26 28 30 30 31 30 29 31 31 33 34 37 39 41 43 43 45 43 40 39 39 39 39
22 19 16 18 20 20 21 22 21 20 19 19 20 20 20 18 16 14 13 12 11 9 8 8 8 8 9 11 13 14 14 18 24 26 26 26 26 24 22 22 22 23 24 25 25 25 25 25 25 26 27 33 32 31 31 30 29 29 29 29 27 28 28 27 28 30 32 31 29 31 33 34 35 38 38 38 41 44 48 45 42 41 39 39 39
24 21 18 16 18 20 22 22 21 21 22 22 22 21 20 19 17 16 15 14 12 10 10 9 7 8 8 9 9 11 13 18 24 26 28 29 29 27 23 23 23 23 24 26 27 27 27 27 27 28 28 33 32 32 32 31 32 31 31 30 28 27 28 30 31 30 30 31 30 32 36 37 36 36 38 40 41 44 47 47 46 43 42 40 39
22 21 18 15 17 19 21 22 23 23 24 24 23 21 20 19 19 18 17 16 14 12 11 10 8 9 10 10 8 8 8 18 24 26 27 29 30 29 25 24 24 24 24 26 28 29 29 29 29 30 31 32 33 35 35 34 34 35 34 33 31 30 30 31 33 33 34 34 33 32 33 36 37 38 39 41 44 46 47 47 46 45 42 40 40
17 17 16 15 16 17 19 21 23 23 23 22 21 20 20 20 20 20 19 18 16 15 13 12 12 12 12 13 12 8 7 18 22 24 27 28 31 27 27 26 25 25 24 25 26 28 30 31 31 31 32 32 36 40 39 38 37 38 38 35 33 32 32 33 35 36 36 37 36 35 37 38 41 42 43 45 46 47 50 49 48 49 47 nan nan
15 14 13 14 15 16 18 20 21 21 20 19 18 19 19 19 20 22 22 21 19 17 16 15 15 15 16 17 17 13 10 20 23 24 25 29 30 27 28 28 28 27 27 27 26 27 29 31 32 33 33 32 37 41 43 44 40 40 40 39 37 36 35 37 39 39 38 41 39 40 46 51 53 56 55 51 49 49 51 51 51 nan nan nan nan
15 13 13 14 15 15 16 17 17 17 17 16 16 17 18 20 21 24 24 24 22 20 19 18 17 18 19 19 21 19 15 24 28 27 28 32 33 31 32 32 31 30 30 31 30 27 26 30 32 31 33 33 42 42 44 46 43 43 43 42 41 39 39 40 43 44 48 51 51 50 52 55 55 58 59 58 55 51 52 51 nan nan nan 50 nan
14 14 14 15 14 13 13 13 13 14 14 13 15 17 19 22 23 25 25 24 23 22 22 21 21 21 20 21 23 23 21 24 33 31 32 34 33 33 35 35 34 33 33 33 33 33 30 29 31 31 31 35 46 44 45 45 43 44 44 44 43 41 43 46 50 50 50 50 51 51 51 54 56 55 55 58 57 53 50 nan nan nan nan nan nan
15 15 15 16 16 15 14 13 14 15 15 16 18 20 23 25 26 28 27 26 25 24 24 24 23 24 25 24 25 24 23 26 35 35 36 36 38 34 35 36 35 35 37 37 35 34 34 31 32 32 33 38 45 45 45 45 42 43 44 45 44 42 45 48 50 52 52 52 53 53 53 54 55 56 57 56 56 54 nan nan nan nan nan nan nan
20 19 18 17 18 17 16 16 18 19 19 21 22 23 24 26 27 28 27 27 27 26 26 27 27 27 28 29 28 27 27 26 36 40 39 41 40 38 35 35 34 35 37 38 37 36 36 33 30 37 38 41 44 45 46 45 43 43 44 45 45 47 50 50 53 54 53 53 52 53 55 56 55 55 58 59 58 56 nan nan nan nan nan nan nan
23 21 20 19 19 19 19 21 21 21 22 24 25 24 25 25 25 25 25 26 27 27 28 28 28 28 28 28 28 27 28 30 34 39 40 40 41 40 35 35 37 36 35 35 35 35 37 35 32 42 44 45 47 47 45 44 43 43 42 45 51 56 53 54 57 55 55 55 53 55 56 57 57 55 57 61 61 nan nan nan nan nan nan nan nan
25 24 23 22 22 22 22 23 24 24 24 25 25 26 26 26 27 28 28 28 28 28 28 28 29 28 28 28 26 26 26 31 35 39 37 39 40 39 37 36 41 41 37 34 33 34 37 39 37 49 51 51 53 52 49 48 47 43 44 49 54 55 55 54 58 55 56 56 56 57 58 59 61 58 57 61 nan nan nan nan nan nan nan nan nan
28 26 26 25 24 24 24 24 25 26 27 27 26 26 27 29 29 31 31 30 30 29 28 29 30 30 28 26 25 25 29 29 35 39 39 40 40 40 38 36 40 41 41 36 36 35 35 39 40 51 52 54 54 54 53 52 50 50 51 54 56 55 54 54 59 56 58 58 57 59 60 61 63 62 61 nan nan nan nan nan nan nan nan nan nan
29 28 28 27 26 26 26 27 28 28 29 30 30 29 28 30 30 31 31 30 30 30 31 31 31 31 29 28 26 26 27 31 31 41 43 42 41 42 41 40 37 39 41 40 39 38 39 39 44 55 51 52 53 54 52 51 51 54 56 59 60 55 54 54 58 59 58 58 58 61 62 62 63 64 nan nan nan nan nan nan nan nan nan nan nan
31 31 32 31 30 29 29 29 29 30 31 32 32 32 32 32 33 33 32 33 33 33 34 34 35 34 32 31 30 30 33 33 33 37 46 44 43 44 44 42 40 39 39 39 39 38 37 43 56 59 56 54 54 53 52 49 49 54 57 59 58 57 56 57 61 59 59 58 59 61 63 63 nan 65 69 73 nan nan nan nan nan nan nan nan nan
33 34 34 34 34 33 33 32 33 34 34 34 35 34 34 34 34 34 34 35 36 37 38 37 36 36 36 35 36 36 36 36 35 34 44 49 46 46 44 44 42 41 43 43 42 45 45 54 60 60 60 60 60 58 54 55 55 56 58 56 56 57 57 58 62 62 60 58 60 62 63 63 nan 68 nan nan nan nan nan nan nan nan nan nan nan
33 34 35 36 38 37 36 36 36 37 38 37 38 39 38 37 38 40 39 40 40 41 41 40 39 39 39 40 39 39 38 39 39 39 39 50 53 52 51 50 50 51 48 47 48 50 53 60 66 67 65 64 61 61 59 60 60 61 61 60 60 60 61 63 65 64 62 60 61 62 63 65 64 nan nan nan nan nan nan nan nan nan nan nan nan
35 37 37 38 39 40 39 40 39 39 39 40 40 42 40 40 41 44 52 51 50 48 45 43 42 42 43 45 45 44 43 42 47 54 53 58 54 55 56 52 52 53 51 52 53 57 59 66 73 71 69 66 64 62 61 63 61 60 61 61 61 62 64 63 64 65 64 64 66 66 66 67 nan nan nan nan nan nan nan nan nan nan nan nan nan
38 39 40 40 39 40 39 41 40 39 40 41 44 50 54 58 55 53 53 55 60 57 54 53 51 50 49 48 49 50 48 49 51 50 51 55 57 49 47 52 54 53 54 57 61 62 62 66 73 74 72 70 68 67 66 65 62 61 60 59 60 62 65 63 64 66 66 67 69 70 70 nan 72 nan nan nan nan nan nan nan nan nan nan nan nan
45 45 44 46 44 40 40 40 41 42 41 43 45 50 52 56 60 63 60 55 58 59 60 59 58 58 56 52 54 56 57 55 56 55 54 55 56 53 48 45 49 52 54 61 64 65 66 71 73 75 75 72 70 72 73 70 68 68 66 63 59 61 63 62 64 66 67 69 71 73 nan nan nan nan nan nan nan nan nan nan nan nan nan nan nan
45 45 46 45 46 47 47 49 50 47 47 51 55 52 52 56 58 58 61 62 61 61 59 60 59 60 63 63 59 56 58 59 58 56 55 53 54 54 53 50 47 48 53 65 67 68 68 72 76 78 78 75 74 76 77 73 71 72 73 71 65 63 63 62 65 68 69 71 73 nan nan nan nan nan nan nan nan nan nan nan nan nan nan nan nan
46 48 48 47 46 49 49 49 49 50 52 53 54 51 51 54 59 58 57 55 59 61 61 61 61 61 61 61 63 61 56 55 nan nan nan nan nan nan nan nan nan nan 54 62 65 66 70 73 75 77 77 74 74 77 79 77 74 73 76 77 75 74 71 67 68 71 73 74 nan nan nan nan nan nan nan nan nan nan nan nan nan nan nan nan nan
51 49 49 50 50 51 51 50 51 52 54 54 55 55 55 56 57 56 56 56 54 54 52 nan nan nan nan nan nan nan nan nan nan nan nan nan nan nan nan nan nan nan nan 63 66 65 69 73 75 77 76 72 72 77 80 79 78 76 74 74 74 78 78 75 72 74 75 76 nan nan nan nan nan nan nan nan nan nan nan nan nan nan nan nan nan
49 52 54 53 53 54 54 55 56 56 56 56 56 56 56 55 54 54 54 54 55 55 56 58 58 nan nan nan nan nan nan nan nan nan nan nan nan nan nan nan nan nan nan nan nan 62 64 68 70 72 73 71 71 75 78 81 81 80 77 75 73 76 79 78 77 79 80 nan nan nan nan nan nan nan nan nan nan nan nan nan nan nan nan nan nan
50 50 52 54 56 57 57 57 56 56 55 54 53 54 53 53 53 54 54 55 nan nan nan 58 57 61 nan nan nan nan nan nan nan nan nan nan nan nan nan nan nan nan nan nan nan nan 59 61 64 68 70 70 72 73 75 79 82 83 82 80 78 78 79 78 77 81 85 nan nan nan nan nan nan nan nan nan nan nan nan nan nan nan nan nan nan
52 53 54 56 57 58 59 58 57 55 54 54 54 53 54 54 54 54 56 56 nan 56 58 59 nan nan 64 65 nan nan nan nan nan nan nan nan nan nan nan nan nan nan nan nan nan nan nan 58 62 66 71 74 76 80 83 85 86 86 88 87 82 81 77 73 73 76 83 nan nan nan nan nan nan nan nan nan nan nan nan nan nan nan nan nan nan
55 54 54 54 55 57 57 57 56 50 53 55 55 54 55 55 56 57 57 59 58 59 61 62 nan nan 63 64 nan nan nan nan nan nan nan nan nan nan nan nan nan nan nan nan nan nan nan nan 60 63 70 75 79 85 89 87 86 87 86 83 82 81 82 76 73 75 nan nan nan nan nan nan nan nan nan nan nan nan nan nan nan nan nan nan nan
53 52 51 51 56 55 56 56 57 57 57 57 58 58 57 57 58 58 59 60 61 62 62 nan 64 nan nan nan nan nan nan nan nan nan nan nan nan nan nan nan nan nan nan nan nan nan nan nan nan nan 66 74 78 83 83 76 74 79 83 83 81 79 75 72 74 nan nan nan nan nan nan nan nan nan nan nan nan nan nan nan nan nan nan nan nan
52 51 51 46 52 54 54 55 56 58 59 60 60 60 59 57 58 58 60 61 62 61 63 63 65 nan nan nan nan nan nan nan nan nan nan nan nan nan nan nan nan nan nan nan nan nan nan nan nan nan nan nan nan 70 62 59 58 63 72 79 79 72 69 71 nan nan nan nan nan nan nan nan nan nan nan nan nan nan nan nan nan nan nan nan nan
52 53 53 54 51 55 56 56 57 58 61 61 60 60 60 58 58 56 58 57 58 58 59 62 62 nan nan nan nan nan nan nan nan nan nan nan nan nan nan nan nan nan nan nan nan nan nan nan nan nan nan nan nan nan nan nan 58 57 58 62 64 62 63 67 nan nan nan nan nan nan nan nan nan nan nan nan nan nan nan nan nan nan nan nan nan
53 53 54 55 56 57 58 57 57 58 58 61 60 57 55 55 56 56 nan 54 56 nan nan nan nan nan nan nan nan nan nan nan nan nan nan nan nan nan nan nan nan nan nan nan nan nan nan nan nan nan nan nan nan nan nan nan 46 49 47 46 50 56 61 nan nan nan nan nan nan nan nan nan nan nan nan nan nan nan nan nan nan nan nan nan nan
55 55 56 58 58 57 57 57 55 54 54 53 53 52 50 49 52 nan nan nan nan nan nan nan nan nan nan nan nan nan nan nan nan nan nan nan nan nan nan nan nan nan nan nan nan nan nan nan nan nan nan nan nan nan nan nan 33 36 39 44 48 55 62 nan nan nan nan nan nan nan nan nan nan nan nan nan nan nan nan nan nan nan nan nan nan
57 57 58 59 60 59 57 55 53 51 49 49 46 46 48 48 50 51 51 nan nan nan nan nan nan nan nan nan nan nan nan nan nan nan nan nan nan nan nan nan nan nan nan nan nan nan nan nan nan nan nan nan nan nan nan nan nan nan nan nan nan nan nan nan nan nan nan nan nan nan nan nan nan nan nan nan nan nan nan nan nan nan nan nan nan
56 58 60 60 59 58 56 54 52 50 49 48 49 50 50 51 51 52 53 53 52 nan nan nan nan nan nan nan nan nan nan nan nan nan nan nan nan nan nan nan nan nan nan nan nan nan nan nan nan nan nan nan nan nan nan nan nan nan nan nan nan nan nan nan nan nan nan nan nan nan nan nan nan nan nan nan nan nan nan nan nan nan nan nan nan
nan nan nan nan nan nan nan 52 52 51 51 52 52 53 52 53 55 56 56 55 54 52 nan nan nan nan nan nan nan nan nan nan nan nan nan nan nan nan nan nan nan nan nan nan nan nan nan nan nan nan nan nan nan nan nan nan nan nan nan nan nan nan nan nan nan nan nan nan nan nan nan nan nan nan nan nan nan nan nan nan nan nan nan nan nan
nan nan nan nan nan nan nan nan nan nan nan nan nan nan nan nan nan nan nan nan nan 54 53 53 53 53 52 nan nan nan nan nan nan nan nan nan nan nan nan nan nan nan nan nan nan nan nan nan nan nan nan nan nan nan nan nan nan nan nan nan nan nan nan nan nan nan nan nan nan nan nan nan nan nan nan nan nan nan nan nan nan nan nan nan nan
nan nan nan nan nan nan nan nan nan nan nan nan nan nan nan nan nan nan nan nan nan nan nan 54 53 nan nan 50 nan nan nan nan nan nan nan nan nan nan nan nan nan nan nan nan nan nan nan nan nan nan nan nan nan nan nan nan nan nan nan nan nan nan nan nan nan nan nan nan nan nan nan nan nan nan nan nan nan nan nan nan nan nan nan nan nan
nan nan nan nan nan nan nan nan nan nan nan nan nan nan nan nan nan nan nan nan nan nan nan nan nan nan nan nan nan nan nan nan nan nan nan nan nan nan nan nan nan nan nan nan nan nan nan nan nan nan nan nan nan nan nan nan nan nan nan nan nan nan nan nan nan nan nan nan nan nan nan nan nan nan nan nan nan nan nan nan nan nan nan nan nan
nan nan nan nan nan nan nan nan nan nan nan nan nan nan nan nan nan nan nan nan nan nan nan nan nan nan nan nan nan nan nan nan nan nan nan nan nan nan nan nan nan nan nan nan nan nan nan nan nan nan nan nan nan nan nan nan nan nan nan nan nan nan nan nan nan nan nan nan nan nan nan nan nan nan nan nan nan nan nan nan nan nan nan nan nan
nan nan nan nan nan nan nan nan nan nan nan nan nan nan nan nan nan nan nan nan nan nan nan nan nan nan nan nan nan nan nan nan nan nan nan 43 44 47 47 nan 42 nan nan nan nan nan nan nan nan nan nan nan nan nan nan nan nan nan nan nan nan nan nan nan nan nan nan nan nan nan nan nan nan nan nan nan nan nan nan nan nan nan nan nan nan
Wind_Direction
298 293 291 294 298 301 303 300 303 294 296 295 292 290 289 290 293 293 291 293 292 294 293 292 292 293 295 292 297 292 295 301 304 311 319 320 315 308 302 310 317 312 306 306 306 309 325 339 342 343 347 348 347 347 344 345 349 351 349 346 344 342 342 343 344 345 340 341 344 339 337 336 330 332 331 332 324 327 nan 333 328 331 332 334 331
292 290 290 292 302 299 301 296 297 293 300 300 301 298 295 295 296 296 301 298 296 297 296 292 288 291 292 290 288 290 291 293 300 301 310 315 319 307 303 301 308 313 306 306 305 299 308 322 330 333 338 344 346 345 343 342 345 348 345 345 344 342 341 344 346 346 347 341 341 341 341 333 336 330 333 333 334 329 332 330 nan 332 332 333 nan
293 285 287 289 298 294 294 295 296 304 309 307 312 311 308 307 306 307 306 301 298 296 294 293 287 288 288 286 287 288 288 292 292 295 299 307 312 312 305 303 304 310 310 305 305 301 304 311 323 325 326 338 343 344 340 340 341 343 344 341 343 343 341 344 345 347 349 346 340 342 343 337 337 334 332 332 332 331 330 331 330 330 330 334 335
293 292 292 295 296 293 295 296 305 308 313 311 318 321 318 317 316 318 316 309 304 298 294 292 288 286 287 287 288 287 288 288 290 291 293 296 301 307 307 303 300 303 305 305 305 302 303 305 314 322 325 332 338 340 338 337 339 339 343 341 341 343 340 340 346 346 345 347 344 346 340 342 336 337 335 332 334 333 331 329 331 332 332 335 335
295 299 302 302 300 299 303 303 307 313 317 314 324 327 328 325 322 326 323 321 316 305 299 294 290 288 286 288 287 288 288 288 289 291 288 287 293 300 305 304 301 299 298 300 300 301 302 304 309 315 320 327 332 337 337 340 338 338 340 339 338 338 338 339 342 346 347 348 344 341 339 337 336 336 336 335 333 332 332 332 332 332 333 336 335
298 300 300 303 304 312 309 310 315 319 320 322 327 330 331 332 330 326 328 328 325 320 311 303 296 294 289 288 288 289 288 288 290 291 291 289 289 294 301 306 304 298 295 298 300 300 300 303 305 311 317 324 327 330 333 338 337 339 340 337 335 333 336 338 340 343 346 347 344 342 338 340 339 339 337 334 333 332 333 333 334 333 332 335 337
298 303 302 306 305 313 313 311 309 314 314 319 318 323 330 333 335 332 328 331 331 331 327 319 309 303 295 291 291 290 291 291 289 291 289 288 289 293 298 304 304 298 295 297 299 301 302 301 304 309 315 319 323 326 329 332 333 338 337 336 333 333 332 334 336 340 343 344 343 341 340 341 343 342 339 337 334 332 332 332 334 331 333 334 336
297 299 297 298 303 313 310 305 303 302 304 304 311 319 325 328 330 330 328 335 337 339 341 334 328 321 310 300 294 290 292 292 293 293 292 291 291 292 294 299 305 304 299 298 300 302 303 304 305 308 313 315 318 321 324 326 326 331 332 331 331 331 330 330 332 335 338 341 339 340 340 342 343 344 341 339 338 336 335 335 335 333 333 333 334
291 294 291 293 297 300 292 290 290 292 294 297 304 311 318 321 325 329 330 333 332 341 346 346 340 338 333 320 308 300 297 294 290 293 293 296 293 294 296 299 302 303 302 299 298 302 303 303 304 307 308 311 318 317 321 320 320 324 326 328 329 329 327 325 327 330 333 335 336 335 337 338 342 343 343 343 343 340 335 335 335 333 332 333 335
286 289 290 289 288 286 281 278 281 285 288 294 299 305 313 317 326 332 333 335 329 330 336 345 351 346 345 341 334 324 314 299 295 301 293 286 291 288 291 296 300 299 300 299 299 303 306 303 302 308 306 309 310 315 317 318 322 321 320 323 325 324 324 324 324 326 328 331 333 334 337 341 342 342 344 345 344 342 339 335 336 334 334 334 331
296 296 287 281 277 277 277 276 275 281 286 287 292 301 306 309 312 313 318 324 326 317 333 353 2 353 350 346 346 342 335 321 314 305 300 296 286 288 290 292 296 297 299 298 297 300 301 302 297 300 300 303 306 312 313 314 317 320 319 322 321 321 322 323 322 322 324 328 329 330 334 335 336 338 339 343 342 343 338 335 335 333 335 336 336
306 299 288 269 267 273 274 274 274 278 280 286 289 294 297 300 300 305 313 322 309 319 340 354 356 358 349 352 351 346 343 335 323 320 313 308 299 293 290 290 291 294 296 297 295 294 296 297 297 292 298 300 300 301 308 313 312 316 319 314 320 323 321 318 318 320 322 324 326 328 331 332 332 333 337 338 335 335 334 335 334 335 336 336 335
292 291 292 277 269 269 268 272 276 278 281 282 281 284 292 295 299 305 313 307 301 311 324 341 350 355 356 352 355 352 351 335 327 325 322 319 314 308 298 298 296 295 296 297 296 294 292 292 293 294 292 303 299 300 300 304 308 314 316 312 313 318 319 317 314 317 318 319 325 326 329 328 330 330 331 332 329 332 330 334 336 335 334 336 335
291 292 290 284 276 273 272 274 277 277 277 277 278 284 291 297 300 299 295 295 300 308 324 333 333 338 341 343 340 351 357 331 332 329 328 325 322 314 306 307 304 301 302 301 297 298 296 293 294 294 293 293 298 302 302 303 301 301 303 304 307 309 312 316 315 312 310 311 317 324 324 325 325 324 326 326 329 329 330 334 335 336 335 336 334
285 286 288 288 281 277 276 276 276 276 277 277 279 286 292 292 296 296 296 298 299 299 307 318 319 321 330 330 325 339 348 323 328 331 331 329 326 318 311 308 306 307 307 306 303 303 301 298 298 297 298 300 301 305 303 304 302 302 304 309 313 313 312 315 317 316 317 318 314 316 317 319 321 323 321 323 328 328 328 330 333 333 330 329 333
288 285 291 297 294 286 281 275 274 276 277 278 284 292 293 293 295 290 287 287 285 284 287 298 308 311 312 313 314 322 316 306 316 323 328 326 322 305 309 313 313 311 310 308 305 301 302 301 300 302 301 304 306 310 306 300 301 300 303 306 309 310 311 311 314 317 317 315 315 319 320 319 319 320 319 321 323 325 324 322 323 327 330 nan nan
293 290 294 299 294 286 281 280 281 284 285 288 293 295 291 288 284 281 286 288 287 286 286 289 289 298 305 303 306 299 293 290 304 314 317 317 304 299 305 308 310 314 312 312 309 306 306 306 305 303 303 302 302 309 306 302 299 299 299 302 304 305 306 303 308 310 310 295 295 301 296 300 302 302 302 305 315 321 322 322 323 nan nan nan nan
295 289 284 286 284 282 281 285 289 292 292 300 301 292 286 279 281 280 285 289 291 285 277 276 281 285 293 301 300 298 292 287 304 308 312 309 304 297 299 302 306 309 310 310 307 308 311 313 310 308 304 304 301 309 306 302 299 299 298 298 300 302 302 301 297 293 293 292 295 299 301 300 301 302 305 307 309 318 323 322 nan nan nan 332 nan
289 290 285 280 278 279 278 282 287 291 296 299 292 289 286 282 280 280 284 286 285 277 273 273 276 278 288 296 298 301 301 298 304 309 312 310 307 297 298 298 299 302 302 302 303 300 302 302 315 312 307 304 302 309 307 302 299 300 299 296 297 300 298 298 294 295 294 296 295 296 297 300 301 303 303 306 310 318 323 nan nan nan nan nan nan
265 276 279 277 277 277 278 286 292 295 297 290 285 287 285 285 288 289 289 287 284 280 278 278 282 284 289 294 292 299 301 294 299 313 313 314 319 303 298 299 302 302 296 291 293 296 295 296 303 316 313 304 303 309 307 308 301 298 295 295 296 298 294 293 293 293 296 298 297 298 299 300 301 302 303 305 308 316 nan nan nan nan nan nan nan
260 263 267 277 279 283 284 292 297 294 291 290 291 294 293 293 292 291 291 287 285 284 286 286 288 290 290 290 293 298 295 299 294 310 312 315 319 312 301 304 306 302 296 292 291 290 290 295 297 305 307 301 302 306 308 310 305 295 294 295 296 291 289 290 290 293 293 295 296 298 298 298 301 302 302 304 307 311 nan nan nan nan nan nan nan
261 265 269 274 278 281 286 287 290 289 291 293 295 296 294 294 293 292 287 285 288 290 290 291 291 292 293 294 292 290 292 301 289 302 310 315 315 323 305 308 306 303 304 301 297 291 289 289 290 293 303 298 299 302 306 305 304 288 289 292 291 289 290 285 285 287 288 290 295 296 298 299 299 303 302 302 305 nan nan nan nan nan nan nan nan
263 266 269 273 274 279 281 285 283 284 289 293 295 294 291 291 290 289 290 291 294 297 298 297 295 293 293 296 292 284 283 285 294 290 303 309 314 317 322 309 307 304 305 307 305 297 288 285 289 291 301 298 296 299 299 301 293 286 284 284 284 287 288 285 284 286 287 288 291 293 295 297 298 301 303 302 nan nan nan nan nan nan nan nan nan
256 262 265 267 270 273 276 280 282 283 286 287 290 290 290 288 286 286 290 294 295 298 298 298 296 295 296 297 293 284 280 283 287 295 297 310 309 315 318 317 308 305 308 306 305 301 294 288 285 288 296 296 296 296 296 294 289 292 281 284 282 283 281 282 281 285 284 286 289 292 294 295 296 299 301 nan nan nan nan nan nan nan nan nan nan
251 255 259 262 263 264 267 270 275 276 277 282 283 285 287 285 283 284 287 291 292 293 294 293 293 292 291 291 290 287 284 280 280 289 300 303 310 312 315 318 314 309 303 304 302 300 294 292 289 290 295 296 298 297 294 298 299 293 285 284 284 278 281 280 281 281 284 286 290 289 290 291 293 294 nan nan nan nan nan nan nan nan nan nan nan
248 249 252 256 260 262 263 264 267 270 272 274 279 280 281 282 281 282 284 286 287 289 289 289 289 289 288 288 287 285 282 280 281 283 290 299 302 308 311 310 310 309 304 298 302 299 289 284 291 294 295 294 287 282 279 286 295 293 289 287 281 283 282 280 279 283 284 287 290 288 288 290 nan 292 289 289 nan nan nan nan nan nan nan nan nan
247 248 250 253 257 259 262 261 263 266 270 270 274 276 276 276 278 279 281 282 284 285 287 286 285 284 284 285 285 286 286 285 285 286 285 285 287 291 295 296 303 302 296 292 293 291 292 283 286 289 289 293 292 291 292 293 290 287 285 285 285 286 284 281 281 282 282 284 284 286 286 286 nan 287 nan nan nan nan nan nan nan nan nan nan nan
247 248 250 251 255 257 258 259 261 264 267 269 270 271 272 273 274 275 277 279 281 283 285 284 283 284 285 285 285 286 287 286 284 283 279 280 287 290 292 292 292 292 293 292 290 290 288 284 284 283 283 283 285 283 285 285 288 288 286 288 292 291 289 288 283 282 281 280 282 283 282 283 285 nan nan nan nan nan nan nan nan nan nan nan nan
247 251 251 251 252 255 256 259 259 260 265 266 265 262 262 267 268 270 263 262 264 269 274 279 281 278 277 275 272 272 275 279 279 267 269 273 278 288 293 293 294 294 300 303 297 291 289 284 279 281 281 282 283 284 286 283 284 286 289 290 291 291 290 289 288 289 285 282 280 280 281 281 nan nan nan nan nan nan nan nan nan nan nan nan nan
254 255 254 255 255 257 259 260 261 261 263 264 265 259 252 251 254 259 263 266 267 268 268 270 271 271 271 272 271 270 271 269 261 258 261 265 276 282 288 297 301 299 303 308 300 294 293 289 286 285 284 283 284 285 284 283 281 281 284 290 290 288 290 291 289 290 288 287 283 283 283 nan 282 nan nan nan nan nan nan nan nan nan nan nan nan
246 247 247 246 243 252 260 260 263 262 259 262 263 265 262 256 254 258 262 264 264 266 270 274 274 273 273 271 271 273 272 267 263 262 262 265 267 275 282 289 299 305 305 298 294 293 291 290 288 287 286 287 288 288 285 283 283 282 282 282 280 283 286 287 288 288 289 288 286 285 nan nan nan nan nan nan nan nan nan nan nan nan nan nan nan
253 251 249 249 249 248 251 250 252 254 256 258 259 260 262 261 259 256 261 265 266 265 265 263 260 261 265 267 266 264 259 257 259 259 260 261 266 272 279 286 292 299 303 299 294 294 292 292 292 293 294 294 296 295 293 292 291 289 288 284 281 279 282 283 284 285 285 285 284 nan nan nan nan nan nan nan nan nan nan nan nan nan nan nan nan
252 254 255 255 255 257 257 257 259 260 259 257 258 261 262 265 264 264 260 260 262 263 262 261 261 260 259 263 268 269 267 263 nan nan nan nan nan nan nan nan nan nan 292 291 293 295 293 293 294 296 298 300 298 296 295 295 293 292 292 291 289 285 283 279 277 277 278 280 nan nan nan nan nan nan nan nan nan nan nan nan nan nan nan nan nan
241 243 250 253 251 253 254 255 257 258 257 258 261 263 261 262 263 263 265 266 265 262 264 nan nan nan nan nan nan nan nan nan nan nan nan nan nan nan nan nan nan nan nan 293 293 295 293 294 296 297 298 299 298 294 293 292 292 292 291 290 290 287 285 279 274 272 274 277 nan nan nan nan nan nan nan nan nan nan nan nan nan nan nan nan nan
248 247 248 250 254 254 255 255 255 255 257 259 260 261 261 261 262 261 261 261 262 263 265 267 271 nan nan nan nan nan nan nan nan nan nan nan nan nan nan nan nan nan nan nan nan 291 293 295 296 298 298 299 297 295 293 293 291 289 288 286 285 284 283 282 278 275 275 nan nan nan nan nan nan nan nan nan nan nan nan nan nan nan nan nan nan
251 252 252 253 254 254 255 255 256 257 256 257 258 259 261 262 263 265 266 266 nan nan nan 267 266 269 nan nan nan nan nan nan nan nan nan nan nan nan nan nan nan nan nan nan nan nan 297 297 297 298 299 299 297 295 293 291 288 285 282 280 278 277 278 279 277 274 272 nan nan nan nan nan nan nan nan nan nan nan nan nan nan nan nan nan nan
249 250 251 252 254 256 255 255 256 257 257 259 260 262 262 262 264 267 270 269 nan 269 268 268 nan nan 270 270 nan nan nan nan nan nan nan nan nan nan nan nan nan nan nan nan nan nan nan 302 301 301 302 304 302 298 293 289 283 280 278 277 275 276 277 278 276 272 270 nan nan nan nan nan nan nan nan nan nan nan nan nan nan nan nan nan nan
244 246 247 248 255 256 258 259 260 262 262 263 262 263 264 266 267 268 269 270 270 269 268 269 nan nan 268 269 nan nan nan nan nan nan nan nan nan nan nan nan nan nan nan nan nan nan nan nan 304 302 301 302 301 298 297 291 280 272 272 274 275 276 277 275 274 270 nan nan nan nan nan nan nan nan nan nan nan nan nan nan nan nan nan nan nan
248 244 242 241 246 254 258 260 261 261 261 262 263 263 264 266 267 268 269 270 270 268 268 nan 268 nan nan nan nan nan nan nan nan nan nan nan nan nan nan nan nan nan nan nan nan nan nan nan nan nan 298 298 299 299 298 291 277 268 267 267 267 268 270 267 269 nan nan nan nan nan nan nan nan nan nan nan nan nan nan nan nan nan nan nan nan
250 252 246 246 257 256 259 261 261 262 261 261 262 263 264 265 266 268 270 270 269 269 269 268 269 nan nan nan nan nan nan nan nan nan nan nan nan nan nan nan nan nan nan nan nan nan nan nan nan nan nan nan nan 293 294 290 278 269 267 267 265 263 263 263 nan nan nan nan nan nan nan nan nan nan nan nan nan nan nan nan nan nan nan nan nan
254 254 255 252 253 261 262 263 263 261 261 260 261 264 265 266 266 269 269 269 270 271 272 272 272 nan nan nan nan nan nan nan nan nan nan nan nan nan nan nan nan nan nan nan nan nan nan nan nan nan nan nan nan nan nan nan 272 268 269 267 261 258 259 260 nan nan nan nan nan nan nan nan nan nan nan nan nan nan nan nan nan nan nan nan nan
256 256 256 257 258 261 264 264 266 264 261 260 260 260 263 265 268 268 nan 269 270 nan nan nan nan nan nan nan nan nan nan nan nan nan nan nan nan nan nan nan nan nan nan nan nan nan nan nan nan nan nan nan nan nan nan nan 274 276 276 272 264 257 254 nan nan nan nan nan nan nan nan nan nan nan nan nan nan nan nan nan nan nan nan nan nan
255 256 259 261 261 262 263 264 261 260 259 255 258 261 261 263 266 nan nan nan nan nan nan nan nan nan nan nan nan nan nan nan nan nan nan nan nan nan nan nan nan nan nan nan nan nan nan nan nan nan nan nan nan nan nan nan 261 267 269 267 260 255 251 nan nan nan nan nan nan nan nan nan nan nan nan nan nan nan nan nan nan nan nan nan nan
256 257 258 259 261 261 259 256 255 252 251 254 253 256 261 263 265 268 271 nan nan nan nan nan nan nan nan nan nan nan nan nan nan nan nan nan nan nan nan nan nan nan nan nan nan nan nan nan nan nan nan nan nan nan nan nan nan nan nan nan nan nan nan nan nan nan nan nan nan nan nan nan nan nan nan nan nan nan nan nan nan nan nan nan nan
257 258 259 259 258 257 255 253 250 250 249 251 254 258 261 264 267 270 272 273 272 nan nan nan nan nan nan nan nan nan nan nan nan nan nan nan nan nan nan nan nan nan nan nan nan nan nan nan nan nan nan nan nan nan nan nan nan nan nan nan nan nan nan nan nan nan nan nan nan nan nan nan nan nan nan nan nan nan nan nan nan nan nan nan nan
nan nan nan nan nan nan nan 249 248 248 249 251 255 259 263 265 268 271 271 270 270 271 nan nan nan nan nan nan nan nan nan nan nan nan nan nan nan nan nan nan nan nan nan nan nan nan nan nan nan nan nan nan nan nan nan nan nan nan nan nan nan nan nan nan nan nan nan nan nan nan nan nan nan nan nan nan nan nan nan nan nan nan nan nan nan
nan nan nan nan nan nan nan nan nan nan nan nan nan nan nan nan nan nan nan nan nan 269 269 270 270 271 271 nan nan nan nan nan nan nan nan nan nan nan nan nan nan nan nan nan nan nan nan nan nan nan nan nan nan nan nan nan nan nan nan nan nan nan nan nan nan nan nan nan nan nan nan nan nan nan nan nan nan nan nan nan nan nan nan nan nan
nan nan nan nan nan nan nan nan nan nan nan nan nan nan nan nan nan nan nan nan nan nan nan 268 269 nan nan 273 nan nan nan nan nan nan nan nan nan nan nan nan nan nan nan nan nan nan nan nan nan nan nan nan nan nan nan nan nan nan nan nan nan nan nan nan nan nan nan nan nan nan nan nan nan nan nan nan nan nan nan nan nan nan nan nan nan
nan nan nan nan nan nan nan nan nan nan nan nan nan nan nan nan nan nan nan nan nan nan nan nan nan nan nan nan nan nan nan nan nan nan nan nan nan nan nan nan nan nan nan nan nan nan nan nan nan nan nan nan nan nan nan nan nan nan nan nan nan nan nan nan nan nan nan nan nan nan nan nan nan nan nan nan nan nan nan nan nan nan nan nan nan
nan nan nan nan nan nan nan nan nan nan nan nan nan nan nan nan nan nan nan nan nan nan nan nan nan nan nan nan nan nan nan nan nan nan nan nan nan nan nan nan nan nan nan nan nan nan nan nan nan nan nan nan nan nan nan nan nan nan nan nan nan nan nan nan nan nan nan nan nan nan nan nan nan nan nan nan nan nan nan nan nan nan nan nan nan
nan nan nan nan nan nan nan nan nan nan nan nan nan nan nan nan nan nan nan nan nan nan nan nan nan nan nan nan nan nan nan nan nan nan nan 277 283 286 288 nan 287 nan nan nan nan nan nan nan nan nan nan nan nan nan nan nan nan nan nan nan nan nan nan nan nan nan nan nan nan nan nan nan nan nan nan nan nan nan nan nan nan nan nan nan nan